| time (UTC) | temp F | wind direction | speed knots | gust knots | rain 1hr in | rain 24hr in | rain mn in | humidity % | barometer mb |
| 20260506190721 | 42 | 226 | 7.8 | 10.4 | 0.00 | 0.00 | 0.00 | 81 | 1014.3 |
| 20260506184721 | 42 | 231 | 9.6 | 11.3 | 0.00 | 0.00 | 0.00 | 78 | 1014.1 |
| 20260506180721 | 43 | 225 | 11.3 | 13.0 | 0.00 | 0.00 | 0.00 | 78 | 1014.1 |
| 20260506172720 | 43 | 218 | 13.0 | 14.8 | 0.00 | 0.00 | 0.00 | 76 | 1014.2 |
| 20260506170721 | 43 | 223 | 12.2 | 13.0 | 0.00 | 0.00 | 0.00 | 76 | 1014.1 |
| 20260506164720 | 44 | 228 | 12.2 | 13.9 | 0.00 | 0.00 | 0.00 | 73 | 1014.0 |
| 20260506162721 | 43 | 214 | 11.3 | 13.0 | 0.00 | 0.00 | 0.00 | 77 | 1014.0 |
| 20260506160720 | 44 | 229 | 12.2 | 13.0 | 0.00 | 0.00 | 0.00 | 74 | 1014.1 |
| 20260506154721 | 44 | 227 | 13.0 | 14.8 | 0.00 | 0.00 | 0.00 | 74 | 1014.1 |
| 20260506152721 | 44 | 232 | 13.0 | 14.8 | 0.00 | 0.00 | 0.00 | 72 | 1014.1 |
| 20260506150720 | 44 | 235 | 14.8 | 16.5 | 0.00 | 0.00 | 0.00 | 72 | 1014.1 |
| 20260506144720 | 44 | 227 | 15.6 | 18.2 | 0.00 | 0.00 | 0.00 | 73 | 1014.3 |
| 20260506142720 | 44 | 219 | 15.6 | 18.2 | 0.00 | 0.00 | 0.00 | 73 | 1014.3 |
| 20260506140720 | 45 | 230 | 16.5 | 20.0 | 0.00 | 0.00 | 0.00 | 67 | 1014.2 |
| 20260506134720 | 44 | 232 | 17.4 | 20.0 | 0.00 | 0.00 | 0.00 | 67 | 1014.3 |
| 20260506132720 | 44 | 225 | 15.6 | 18.2 | 0.00 | 0.00 | 0.00 | 70 | 1014.3 |
| 20260506130719 | 44 | 230 | 17.4 | 19.1 | 0.00 | 0.00 | 0.00 | 68 | 1014.3 |
| 20260506124719 | 44 | 227 | 17.4 | 20.0 | 0.00 | 0.00 | 0.00 | 70 | 1014.3 |
| 20260506122719 | 44 | 229 | 18.2 | 20.9 | 0.00 | 0.00 | 0.00 | 69 | 1014.3 |
| 20260506120719 | 44 | 222 | 16.5 | 19.1 | 0.00 | 0.00 | 0.00 | 74 | 1014.3 |
| 20260506114720 | 43 | 219 | 18.2 | 21.7 | 0.00 | 0.00 | 0.00 | 76 | 1014.3 |
| 20260506112720 | 44 | 220 | 20.0 | 24.3 | 0.00 | 0.00 | 0.00 | 78 | 1014.2 |
| 20260506110720 | 44 | 219 | 19.1 | 20.9 | 0.00 | 0.00 | 0.00 | 73 | 1014.2 |
| 20260506104720 | 44 | 219 | 16.5 | 18.2 | 0.00 | 0.00 | 0.00 | 75 | 1014.1 |
| 20260506102720 | 44 | 218 | 17.4 | 20.0 | 0.00 | 0.00 | 0.00 | 75 | 1014.1 |
| 20260506100720 | 44 | 217 | 14.8 | 18.2 | 0.00 | 0.00 | 0.00 | 74 | 1013.9 |
| 20260506094720 | 44 | 214 | 13.9 | 16.5 | 0.00 | 0.00 | 0.00 | 77 | 1013.8 |
| 20260506092720 | 44 | 220 | 14.8 | 16.5 | 0.00 | 0.00 | 0.00 | 76 | 1013.6 |
| 20260506090720 | 44 | 219 | 13.9 | 15.6 | 0.00 | 0.00 | 0.00 | 76 | 1013.5 |
| 20260506084720 | 43 | 210 | 12.2 | 13.9 | 0.00 | 0.00 | 0.00 | 75 | 1013.4 |
| 20260506082720 | 43 | 221 | 13.0 | 14.8 | 0.00 | 0.00 | 0.00 | 77 | 1013.4 |
| 20260506080720 | 43 | 221 | 13.0 | 15.6 | 0.00 | 0.00 | 0.00 | 75 | 1013.2 |
| 20260506072720 | 43 | 226 | 10.4 | 12.2 | 0.00 | 0.00 | 0.00 | 72 | 1013.0 |
| 20260506070720 | 43 | 224 | 10.4 | 11.3 | 0.00 | 0.00 | 0.00 | 73 | 1012.8 |
| 20260506060720 | 42 | 248 | 10.4 | 11.3 | 0.00 | 0.00 | 0.00 | 73 | 1012.5 |
| 20260506050719 | 40 | 259 | 10.4 | 11.3 | 0.00 | 0.00 | 0.00 | 73 | 1011.8 |
| 20260506044720 | 40 | 259 | 10.4 | 11.3 | 0.00 | 0.00 | 0.00 | 75 | 1011.6 |
| 20260506042719 | 39 | 267 | 9.6 | 11.3 | 0.00 | 0.00 | 0.00 | 76 | 1011.5 |
| 20260506040719 | 39 | 266 | 9.6 | 11.3 | 0.00 | 0.00 | 0.00 | 76 | 1011.3 |
| 20260506034719 | 39 | 266 | 9.6 | 12.2 | 0.00 | 0.00 | 0.00 | 78 | 1011.2 |
| 20260506032719 | 38 | 261 | 9.6 | 11.3 | 0.00 | 0.00 | 0.00 | 77 | 1010.9 |
| 20260506030719 | 38 | 258 | 9.6 | 11.3 | 0.00 | 0.00 | 0.00 | 78 | 1010.7 |
| 20260506024719 | 38 | 257 | 9.6 | 10.4 | 0.00 | 0.00 | 0.00 | 78 | 1010.5 |
| 20260506022719 | 39 | 266 | 9.6 | 10.4 | 0.00 | 0.00 | 0.00 | 74 | 1010.4 |
| 20260506020719 | 39 | 280 | 8.7 | 10.4 | 0.00 | 0.00 | 0.00 | 75 | 1010.2 |
| 20260506014719 | 39 | 275 | 9.6 | 13.0 | 0.00 | 0.00 | 0.00 | 76 | 1010.0 |
| 20260506012719 | 39 | 278 | 12.2 | 15.6 | 0.00 | 0.00 | 0.00 | 74 | 1009.9 |
| 20260506010719 | 39 | 282 | 13.0 | 15.6 | 0.00 | 0.00 | 0.00 | 76 | 1009.7 |
| 20260506004718 | 40 | 292 | 13.0 | 16.5 | 0.00 | 0.00 | 0.00 | 73 | 1009.5 |
| 20260506002718 | 40 | 293 | 13.9 | 16.5 | 0.00 | 0.00 | 0.00 | 73 | 1009.3 |
| 20260506000718 | 39 | 289 | 12.2 | 14.8 | 0.00 | 0.00 | 0.00 | 75 | 1009.3 |
| 20260505234719 | 39 | 283 | 13.0 | 14.8 | 0.00 | 0.00 | 0.00 | 76 | 1009.2 |
| 20260505232719 | 40 | 283 | 13.9 | 17.4 | 0.00 | 0.00 | 0.00 | 73 | 1009.0 |
| 20260505230718 | 40 | 282 | 13.9 | 16.5 | 0.00 | 0.00 | 0.00 | 73 | 1008.9 |
| 20260505224718 | 40 | 280 | 15.6 | 18.2 | 0.00 | 0.00 | 0.00 | 71 | 1008.7 |
| 20260505222718 | 40 | 275 | 15.6 | 17.4 | 0.00 | 0.00 | 0.00 | 71 | 1008.6 |
| 20260505220718 | 40 | 272 | 15.6 | 18.2 | 0.00 | 0.00 | 0.00 | 72 | 1008.5 |
| 20260505214718 | 41 | 271 | 16.5 | 19.1 | 0.00 | 0.00 | 0.00 | 69 | 1008.4 |
| 20260505212718 | 41 | 273 | 16.5 | 19.1 | 0.00 | 0.00 | 0.00 | 68 | 1008.2 |
| 20260505210718 | 42 | 275 | 13.0 | 16.5 | 0.00 | 0.00 | 0.00 | 68 | 1008.0 |
| 20260505204718 | 42 | 278 | 15.6 | 17.4 | 0.00 | 0.00 | 0.00 | 63 | 1007.7 |
| 20260505202718 | 42 | 278 | 15.6 | 18.2 | 0.00 | 0.00 | 0.00 | 62 | 1007.5 |
| 20260505200718 | 43 | 274 | 15.6 | 18.2 | 0.00 | 0.00 | 0.00 | 61 | 1007.3 |
| 20260505194717 | 43 | 273 | 16.5 | 19.1 | 0.00 | 0.00 | 0.00 | 60 | 1007.1 |
| 20260505192718 | 44 | 270 | 16.5 | 19.1 | 0.00 | 0.00 | 0.00 | 58 | 1007.0 |